#timestamp,LO_Frequency,Hit,StdDev 
1567890015.8,286047002.0,N
1567890035.6,286047002.6,N
1567890055.5,286047002.1,N
1567890075.3,286047000.2,N
1567890095.2,286047001.0,N
1567890115.9,286046999.1,N
1567890135.7,286046997.5,N
1567890155.6,286046997.5,N
1567890175.4,286046997.6,N
1567890195.2,286046995.5,N
1567890215.1,286046996.9,N
1567890216.0,286046996.9,N
1567890235.8,286047000.6,N
1567890255.7,286046999.0,N
1567890275.5,286046996.7,N
1567890295.3,286046999.3,N
1567890315.2,286046998.5,N
1567890335.0,286046999.4,N
1567890335.9,286046999.4,N
1567890355.7,286046998.5,N
1567890375.6,286046998.6,N
1567890395.4,286047000.0,N
1567890415.3,286047001.4,N
1567890435.1,286047002.7,N
1567890436.0,286047002.7,N
1567890455.8,286047004.3,N
1567890475.7,286047002.0,N
1567890495.5,286047001.8,N
1567890515.3,286047004.4,N
1567890535.2,286047004.3,N
1567890555.0,286047002.1,N
1567890555.9,286047002.1,N
1567890575.8,286047004.4,N
1567890595.6,286047004.4,N
1567890615.4,286047004.2,N
1567890635.3,286047004.3,N
1567890655.1,286047005.6,N
1567890675.8,286047004.1,N
1567890695.7,286047007.4,N
1567890715.5,286047006.5,N
1567890735.4,286047006.9,N
1567890755.2,286047006.5,N
1567890775.0,286047008.4,N
1567890775.9,286047008.4,N
1567890795.8,286047010.2,Y
1567890815.6,286047007.0,P
1567890835.5,286047005.2,N
1567890855.3,286047003.0,N
1567890875.1,286047007.4,Y
1567890895.9,286047000.2,P
1567890915.7,286046999.8,N
1567890935.5,286047003.0,N
1567890955.4,286047002.5,N
1567890975.2,286047002.7,N
1567890995.1,286047000.0,N
1567890996.0,286047000.0,N
1567891015.8,286047002.5,N
1567891035.6,286046999.8,N
1567891055.5,286047001.9,N
1567891075.3,286047002.1,N
1567891095.1,286047004.0,N
1567891115.9,286047002.5,N
1567891135.7,286046999.9,N
1567891155.6,286047000.1,N
1567891175.4,286047003.8,N
1567891195.2,286047000.2,N
1567891215.1,286047000.3,N
1567891216.0,286047000.3,N
1567891235.8,286047001.0,N
1567891255.7,286047004.3,N
1567891275.5,286047003.4,N
1567891295.3,286047003.5,N
1567891315.2,286047001.6,N
1567891335.9,286047003.9,N
1567891355.7,286047001.8,N
1567891375.6,286047002.4,N
1567891395.4,286047001.8,N
1567891415.3,286047003.7,N
1567891435.1,286047003.3,N
1567891436.0,286047003.3,N
1567891455.8,286047005.9,Y
1567891475.7,286047001.8,P
1567891495.5,286047002.8,P
1567891515.3,286047000.9,N
1567891535.2,286047001.8,N
1567891555.0,286046998.8,N
1567891555.9,286046998.8,N
1567891575.8,286046998.6,N
1567891595.6,286047001.4,N
1567891615.4,286047003.3,N
1567891635.3,286047002.9,N
1567891655.1,286047003.6,N
1567891675.8,286047001.8,N
1567891695.7,286047000.5,N
1567891715.5,286046999.9,N
1567891735.4,286046998.5,N
1567891755.2,286047000.6,N
1567891775.0,286047000.3,N
1567891775.9,286047000.3,N
1567891795.8,286046999.0,N
1567891815.6,286047001.2,N
1567891835.4,286047002.1,N
1567891855.3,286047000.5,N
1567891875.1,286046999.2,N
1567891895.9,286047000.5,N
1567891915.7,286047000.5,N
1567891935.5,286046999.4,N
1567891955.4,286047001.0,N
1567891975.2,286047000.2,N
1567891995.0,286047004.1,N
1567891995.9,286047004.1,N
1567892015.8,286047004.0,N
1567892035.6,286047004.1,N
1567892055.5,286047005.5,Y
1567892075.3,286047003.5,P
1567892095.1,286047001.9,N
1567892115.9,286047001.6,N
1567892135.7,286046999.7,N
1567892155.5,286047002.6,N
1567892175.4,286047002.4,N
1567892195.2,286046999.7,N
1567892215.1,286047002.3,N
1567892216.0,286047002.3,N
1567892235.8,286046999.8,N
1567892255.6,286047000.4,N
1567892275.5,286047000.3,N
1567892295.3,286047002.7,N
1567892315.1,286047000.7,N
1567892335.9,286047002.7,N
1567892355.7,286047004.2,Y
1567892375.6,286047000.7,P
1567892395.4,286046998.3,P
1567892415.2,286046998.2,N
1567892435.1,286047000.8,N
1567892436.0,286047000.8,N
1567892455.8,286047000.8,N
1567892475.7,286047001.0,N
1567892495.5,286047000.7,N
1567892515.3,286047002.1,N
1567892535.2,286047000.0,N
1567892555.0,286047000.5,N
1567892555.9,286047000.5,N
1567892575.8,286047001.5,N
1567892595.6,286047003.4,Y
1567892615.4,286047005.5,P
1567892635.3,286047005.4,N
1567892655.1,286047005.4,N
1567892675.8,286047004.8,N
1567892695.7,286047004.2,N
1567892715.5,286047003.1,N
1567892735.4,286047003.4,N
1567892755.2,286047005.6,Y
1567892775.0,286047002.4,P
1567892775.9,286047002.4,N
1567892795.8,286047002.0,N
1567892815.6,286047002.3,N
1567892835.4,286047000.9,N
1567892855.3,286046998.2,N
1567892875.1,286046997.7,N
1567892895.9,286046998.9,N
1567892915.7,286046998.6,N
1567892935.5,286046998.4,N
1567892955.4,286046999.3,N
1567892975.2,286047000.1,N
1567892995.0,286047002.8,N
1567892996.0,286047002.8,N
1567893015.8,286047002.5,N
1567893035.6,286047004.2,N
1567893055.5,286047005.5,N
1567893075.3,286047006.0,N
1567893095.1,286047005.9,N
1567893115.9,286047001.7,N
1567893135.7,286047004.1,N
1567893155.5,286047003.4,N
1567893175.4,286047004.1,N
1567893195.2,286047001.9,N
1567893215.1,286047002.8,N
1567893216.0,286047002.8,N
1567893235.8,286047001.3,N
1567893255.6,286047001.9,N
1567893275.5,286047003.3,N
1567893295.3,286047005.3,N
1567893315.1,286047005.1,N
1567893335.9,286047002.9,N
1567893355.7,286047005.4,N
1567893375.6,286047005.6,N
1567893395.4,286047003.5,N
1567893415.2,286047003.6,N
1567893435.1,286047005.4,N
1567893436.0,286047005.4,N
1567893455.8,286047009.0,Y
1567893475.7,286047003.6,P
1567893495.5,286047001.0,P
1567893515.3,286047000.5,N
1567893535.2,286047001.2,N
1567893555.0,286047002.7,N
1567893555.9,286047002.7,N
1567893575.7,286047001.3,N
1567893595.6,286047001.7,N
